Total_Precipitation_Accumulation
0.75 0.77 0.77 0.67 0.54 0.50 0.49 0.46 0.46 0.50 0.56 0.57 0.59 0.66 0.66 0.67 0.69 0.71 0.77 0.83 0.90 1.00 1.07 1.21 1.42 1.60 1.66 1.66 1.71 1.78 1.82 1.68 1.42 1.29 1.08 1.09 1.24 1.21 1.19 1.13 1.21 1.26 1.05
0.72 0.67 0.64 0.57 0.49 0.48 0.44 0.40 0.42 0.46 0.49 0.50 0.55 0.59 0.58 0.64 0.66 0.67 0.67 0.69 0.79 0.87 0.87 0.88 0.99 1.21 1.38 1.52 1.60 1.63 1.69 1.68 1.54 1.52 1.44 1.23 1.20 1.20 1.31 1.38 1.31 1.27 1.24
0.78 0.67 0.63 0.59 0.55 0.52 0.46 0.44 0.43 0.50 0.60 0.63 0.62 0.65 0.62 0.64 0.64 0.65 0.69 0.70 0.73 0.78 0.81 0.83 0.89 0.98 1.15 1.25 1.35 1.46 1.54 1.67 1.66 1.49 1.54 1.49 1.28 1.24 1.29 1.36 1.42 1.51 1.39
0.97 0.83 0.73 0.67 0.61 0.54 0.48 0.46 0.43 0.47 0.53 0.56 0.64 0.72 0.79 0.84 0.82 0.79 0.78 0.76 0.71 0.73 0.79 0.86 0.88 0.89 1.02 1.23 1.35 1.42 1.46 1.57 1.70 1.64 1.58 1.55 1.40 1.32 1.33 1.36 1.48 1.58 1.59
1.00 0.86 0.72 0.61 0.53 0.50 0.53 0.54 0.48 0.44 0.46 0.47 0.55 0.64 0.74 0.82 0.87 0.88 0.74 0.63 0.64 0.69 0.69 0.71 0.78 0.85 0.88 1.03 1.20 1.43 1.45 1.57 1.65 1.72 1.66 1.51 1.39 1.32 1.29 1.30 1.38 1.58 1.62
0.82 0.78 0.62 0.55 0.49 0.44 0.47 0.53 0.53 0.43 0.40 0.42 0.46 0.45 0.47 0.51 0.68 0.69 0.57 0.47 0.52 0.62 0.69 0.71 0.71 0.72 0.75 0.79 0.83 1.07 1.27 1.39 1.50 1.53 1.59 1.48 1.37 1.31 1.39 1.40 1.36 1.41 1.52
0.52 0.53 0.44 0.41 0.48 0.48 0.48 0.48 0.43 0.36 0.38 0.39 0.34 0.31 0.33 0.37 0.42 0.41 0.47 0.47 0.50 0.54 0.62 0.72 0.76 0.74 0.80 0.89 0.85 0.88 0.97 1.04 1.17 1.30 1.35 1.32 1.31 1.27 1.35 1.40 1.38 1.32 1.25
0.27 0.25 0.21 0.28 0.39 0.39 0.35 0.33 0.30 0.30 0.34 0.41 0.35 0.33 0.37 0.35 0.36 0.41 0.45 0.45 0.58 0.64 0.64 0.64 0.75 0.82 0.87 1.03 1.01 1.08 1.01 0.91 0.89 0.95 1.10 1.17 1.13 1.23 1.31 1.48 1.55 1.42 1.32
0.09 0.09 0.10 0.11 0.12 0.13 0.11 0.13 0.18 0.24 0.29 0.26 0.30 0.45 0.45 0.42 0.50 0.47 0.39 0.45 0.57 0.65 0.61 0.64 0.75 0.85 1.01 1.11 1.14 1.17 1.06 0.97 1.00 1.07 1.15 1.22 1.24 1.31 1.37 1.44 1.49 1.48 1.40
0.07 0.08 0.08 0.07 0.08 0.07 0.07 0.08 0.11 0.15 0.20 0.21 0.25 0.38 0.45 0.48 0.50 0.37 0.35 0.44 0.57 0.65 0.66 0.67 0.89 0.89 0.97 1.02 1.07 1.19 1.21 1.08 1.01 1.03 1.08 1.11 1.10 1.19 1.38 1.39 1.50 1.58 1.45
0.10 0.09 0.07 0.07 0.08 0.11 0.13 0.11 0.11 0.11 0.12 0.16 0.21 0.26 0.26 0.27 0.27 0.28 0.32 0.36 0.43 0.55 0.63 0.67 0.64 0.76 0.78 0.88 0.99 1.07 1.28 1.17 1.10 1.10 1.08 0.99 0.95 1.01 1.13 1.31 1.45 1.52 1.47
0.11 0.10 0.09 0.09 0.09 0.11 0.17 0.17 0.15 0.14 0.12 0.12 0.17 0.23 0.22 0.19 0.17 0.19 0.22 0.26 0.33 0.39 0.47 0.58 0.57 0.65 0.70 0.76 0.78 0.95 1.13 1.10 1.03 1.10 1.11 1.05 0.96 0.94 0.96 1.03 1.20 1.27 1.24
0.12 0.11 0.11 0.12 0.12 0.12 0.13 0.16 0.17 0.15 0.14 0.14 0.16 0.19 0.21 0.22 0.20 0.22 0.24 0.27 0.30 0.30 0.32 0.47 0.53 0.61 0.59 0.58 0.70 0.89 0.95 0.99 1.12 1.09 1.10 1.04 0.95 0.92 0.85 0.88 0.99 1.07 1.05
0.15 0.15 0.13 0.14 0.15 0.15 0.15 0.17 0.19 0.20 0.20 0.20 0.21 0.23 0.25 0.26 0.22 0.22 0.27 0.30 0.31 0.29 0.31 0.45 0.57 0.63 0.60 0.59 0.66 0.79 0.84 0.97 1.11 1.04 1.01 0.95 0.88 0.88 0.85 0.85 0.88 0.94 1.00
0.20 0.19 0.19 0.18 0.19 0.20 0.20 0.21 0.20 0.22 0.25 0.24 0.26 0.29 0.27 0.25 0.23 0.24 0.27 0.31 0.32 0.33 0.41 0.56 0.69 0.70 0.70 0.67 0.70 0.80 0.77 0.75 0.84 0.84 0.86 0.87 0.85 0.85 0.80 0.75 0.78 0.81 0.86
0.21 0.22 0.19 0.21 0.23 0.23 0.22 0.20 0.19 0.20 0.24 0.24 0.23 0.25 0.26 0.24 0.22 0.25 0.29 0.32 0.33 0.42 0.58 0.75 0.86 0.94 0.94 0.87 0.82 0.80 0.72 0.70 0.70 0.73 0.81 0.82 0.79 0.82 0.82 0.76 0.77 0.79 0.80
0.18 0.19 0.18 0.18 0.18 0.20 0.22 0.21 0.21 0.20 0.21 0.23 0.22 0.23 0.24 0.25 0.24 0.29 0.34 0.37 0.42 0.63 0.85 0.89 0.92 0.97 1.00 0.92 0.80 0.72 0.62 0.56 0.59 0.65 0.68 0.70 0.73 0.74 0.79 0.78 0.77 0.75 0.71
0.20 0.24 0.22 0.18 0.16 0.16 0.17 0.18 0.20 0.22 0.23 0.22 0.23 0.22 0.23 0.23 0.26 0.35 0.46 0.56 0.60 0.74 0.87 0.90 0.97 0.96 0.92 0.81 0.67 0.58 0.49 0.47 0.50 0.52 0.52 0.50 0.56 0.62 0.67 0.71 0.73 0.71 0.67
0.16 0.22 0.26 0.24 0.21 0.20 0.18 0.15 0.15 0.17 0.19 0.20 0.20 0.19 0.18 0.19 0.20 0.25 0.33 0.38 0.39 0.47 0.54 0.59 0.64 0.64 0.60 0.53 0.48 0.45 0.42 0.41 0.42 0.44 0.46 0.46 0.50 0.52 0.54 0.59 0.66 0.72 0.73
0.13 0.18 0.23 0.26 0.26 0.24 0.22 0.18 0.14 0.13 0.14 0.15 0.16 0.17 0.20 0.21 0.21 0.22 0.22 0.24 0.27 0.29 0.32 0.33 0.34 0.33 0.34 0.34 0.36 0.38 0.40 0.40 0.42 0.45 0.47 0.48 0.52 0.56 0.54 0.54 0.59 0.65 0.68
0.12 0.15 0.20 0.24 0.25 0.24 0.25 0.24 0.20 0.17 0.17 0.17 0.18 0.20 0.23 0.23 0.22 0.24 0.25 0.26 0.28 0.28 0.29 0.30 0.30 0.30 0.31 0.33 0.38 0.41 0.43 0.44 0.43 0.46 0.49 0.50 0.51 0.55 0.57 0.59 0.62 0.65 0.68
0.14 0.15 0.16 0.20 0.25 0.26 0.25 0.24 0.23 0.20 0.20 0.20 0.19 0.21 0.25 0.25 0.28 0.29 0.29 0.31 0.33 0.32 0.31 0.32 0.33 0.34 0.35 0.37 0.42 0.48 0.49 0.50 0.48 0.48 0.50 0.52 0.54 0.56 0.56 0.58 0.61 0.66 0.69
0.18 0.20 0.21 0.23 0.25 0.28 0.27 0.24 0.24 0.23 0.24 0.24 0.23 0.22 0.24 0.25 0.28 0.31 0.30 0.32 0.34 0.33 0.31 0.30 0.32 0.33 0.34 0.35 0.40 0.47 0.52 0.54 0.56 0.56 0.58 0.59 0.60 0.62 0.63 0.63 0.60 0.61 0.66
0.21 0.22 0.23 0.23 0.24 0.25 0.25 0.25 0.25 0.25 0.26 0.27 0.25 0.24 0.25 0.25 0.26 0.28 0.30 0.31 0.33 0.33 0.32 0.33 0.33 0.34 0.36 0.38 0.42 0.45 0.48 0.53 0.60 0.66 0.69 0.70 0.67 0.67 0.70 0.71 0.68 0.68 0.74
0.17 0.21 0.22 0.22 0.23 0.25 0.26 0.27 0.28 0.28 0.28 0.29 0.30 0.29 0.29 0.30 0.30 0.33 0.35 0.35 0.35 0.35 0.34 0.35 0.36 0.36 0.38 0.41 0.44 0.47 0.55 0.59 0.60 0.63 0.68 0.71 0.69 0.69 0.72 0.72 0.72 0.74 0.78
0.14 0.19 0.24 0.25 0.25 0.26 0.27 0.26 0.27 0.30 0.30 0.29 0.29 0.30 0.31 0.33 0.34 0.35 0.38 0.40 0.42 0.41 0.40 0.41 0.41 0.39 0.37 0.38 0.40 0.45 0.51 0.53 0.54 0.58 0.61 0.67 0.72 0.72 0.74 0.77 0.74 0.73 0.75